RH
58 34 29 17 17 21 20 18 20 20 35 67 65 60 60 71 68 68 80 81 78 79 72 71 88 87 86 83 82 80 80 77 77 79 79 76 74 74 73 72 75 78 74 73 69 73 75 73 74
36 30 21 18 17 17 13 18 19 36 55 56 63 75 77 84 72 81 86 81 81 75 68 69 89 85 84 82 80 80 76 76 78 78 76 75 74 73 73 72 74 78 76 72 71 75 77 75 78
26 19 21 18 19 14 16 16 27 62 60 56 65 70 77 83 79 76 75 82 80 78 69 72 87 84 81 79 78 78 80 79 78 77 76 75 73 73 73 72 71 73 76 75 76 78 76 77 81
22 18 16 17 16 16 15 15 52 58 54 53 58 74 76 82 90 82 78 79 81 86 78 85 88 85 81 78 80 81 81 79 76 75 76 75 74 73 73 72 69 70 72 73 75 69 71 80 81
18 19 21 20 17 14 15 45 58 54 55 60 57 81 79 76 91 90 91 83 93 89 87 87 91 88 82 80 83 84 82 80 77 76 76 75 75 74 74 73 71 70 70 70 69 71 75 76 76
19 19 21 19 18 15 31 53 53 58 57 58 63 70 79 81 94 96 95 97 96 98 94 91 90 87 83 83 85 85 84 81 80 79 78 78 77 76 75 75 74 73 72 71 73 77 79 76 74
22 20 21 20 18 16 32 56 52 51 54 57 58 69 87 94 95 92 94 96 98 97 98 95 92 87 90 92 89 88 86 85 84 84 82 82 81 76 75 74 74 74 73 74 72 74 76 77 73
21 21 22 19 17 16 37 54 57 52 73 70 67 77 86 97 94 88 89 92 96 96 95 95 92 85 83 86 92 91 90 90 89 86 84 84 80 80 78 78 76 73 74 74 76 78 75 71 68
18 21 22 20 18 18 52 51 58 70 70 76 79 74 85 94 91 93 94 92 90 96 92 92 88 78 81 91 90 89 89 89 87 81 84 77 52 51 52 71 79 77 76 76 73 70 71 72 66
19 24 22 17 16 19 50 50 59 62 76 79 85 94 94 86 91 96 96 96 91 92 94 93 88 84 81 85 83 88 82 74 72 73 76 75 68 58 52 68 81 80 77 74 68 62 58 45 31
20 20 17 15 14 34 45 54 52 62 65 68 83 96 95 87 86 91 93 91 92 88 88 89 83 78 79 79 95 93 74 69 73 77 74 76 65 66 58 61 57 58 63 44 42 40 36 44 35
20 18 16 16 37 47 54 51 51 54 56 61 77 86 88 84 83 84 88 92 88 82 87 87 84 89 92 91 89 78 72 75 77 67 75 75 68 72 62 55 58 55 48 53 49 43 48 43 42
19 17 25 29 46 48 48 47 54 70 79 70 75 81 85 80 76 76 78 83 85 83 83 85 81 73 71 84 80 80 87 72 70 67 71 63 64 74 69 64 60 57 51 47 44 42 38 41 40
22 44 44 46 46 45 47 59 55 86 75 81 82 81 77 78 82 78 78 74 72 73 69 69 69 65 72 77 78 77 77 74 73 74 74 76 74 74 66 63 60 53 49 44 41 39 37 36 36
25 38 40 42 41 38 39 40 48 80 77 78 77 78 73 76 83 80 69 69 67 66 62 64 64 69 80 79 72 69 68 70 75 83 86 85 80 78 73 61 57 52 52 51 46 46 42 37 34
29 35 39 38 38 34 28 32 65 80 78 76 76 77 81 78 79 72 70 68 70 64 65 68 66 76 80 80 72 70 81 80 89 90 89 84 82 78 76 62 59 62 66 56 56 44 42 40 37
29 29 36 38 36 34 36 32 57 77 74 74 82 80 79 79 74 73 69 66 67 62 67 70 76 82 83 81 79 79 78 81 81 87 90 84 82 78 72 64 64 70 63 59 48 48 45 43 40
33 28 27 32 34 38 37 34 57 77 74 71 73 80 83 81 73 65 68 65 59 64 68 72 76 82 82 80 81 80 84 84 86 86 78 73 67 71 65 64 66 62 54 54 51 52 50 45 43
30 32 28 27 30 29 35 37 36 73 74 77 74 74 77 75 68 62 62 66 64 66 70 71 78 82 78 75 82 80 88 90 91 88 80 74 62 62 65 61 62 59 55 55 58 54 55 50 51
34 33 33 28 27 32 31 29 32 61 68 67 71 70 69 69 70 69 67 66 67 66 69 68 70 76 75 69 75 72 82 88 86 87 78 76 67 62 64 65 61 60 56 60 58 56 53 52 53
32 33 32 30 28 31 30 28 32 36 55 64 63 64 63 66 70 72 74 74 70 68 70 67 66 72 75 71 70 76 81 85 87 86 82 74 68 66 63 66 62 62 57 55 58 57 56 53 56
36 30 31 31 30 31 28 32 30 30 39 52 60 62 66 65 69 66 70 75 75 72 67 66 70 74 74 76 71 75 76 80 83 85 78 68 69 74 69 61 62 61 56 59 58 56 59 61 50
34 31 32 32 34 35 33 30 27 30 30 34 45 55 56 56 60 64 67 65 67 72 79 75 75 75 76 77 74 80 80 78 85 86 79 73 76 77 65 62 62 62 57 63 63 64 61 57 52
32 34 38 42 40 46 35 31 30 25 25 25 25 36 50 53 56 57 58 62 64 75 79 80 76 75 75 78 79 82 81 83 83 82 80 74 71 68 66 59 61 63 62 60 68 83 75 67 72
32 36 46 50 52 50 43 43 34 28 27 27 31 28 38 52 52 55 59 63 62 74 79 79 74 74 79 81 83 82 82 81 85 81 80 80 74 67 67 64 66 65 67 72 86 64 65 69 54
38 36 53 47 51 41 42 41 23 28 27 37 39 36 33 50 53 52 54 58 61 68 73 74 73 72 76 80 83 84 80 82 81 85 83 77 76 70 68 64 69 71 71 72 71 68 65 71 66
39 42 37 57 67 62 40 34 24 27 29 38 39 36 35 42 47 49 51 58 61 65 73 76 73 72 78 81 82 83 83 85 85 86 88 87 82 68 71 68 65 78 71 68 81 77 63 68 72
36 35 46 51 54 53 39 40 26 27 30 32 38 39 38 44 50 49 54 59 61 63 70 76 72 71 74 77 79 79 82 83 85 89 90 85 77 75 72 66 74 69 73 81 76 69 67 69 64
41 41 45 40 47 47 51 37 34 26 29 32 36 40 42 48 52 56 56 59 62 66 70 73 71 68 72 74 80 87 89 88 89 92 89 85 80 74 74 77 66 76 92 80 67 70 70 62 60
36 41 42 57 47 58 58 43 27 30 27 31 34 37 42 53 56 60 62 68 71 70 70 69 70 73 76 81 88 91 91 92 94 93 89 82 76 73 78 76 75 84 71 68 74 70 54 57 59
Wind_Speed
5 3 1 2 4 1 2 3 1 3 3 1 3 3 4 3 1 0 3 4 18 18 20 21 19 20 19 20 21 21 21 22 22 22 20 21 20 19 18 17 17 18 19 22 22 23 22 22 21
4 3 3 2 2 3 3 2 3 1 4 4 2 3 6 4 2 0 3 9 17 19 19 20 20 20 21 21 22 22 22 23 22 21 20 21 20 19 19 17 18 20 21 23 25 23 22 21 19
2 3 1 2 1 5 2 3 3 3 2 3 1 7 5 3 3 2 2 13 19 18 18 19 21 21 22 22 22 22 21 22 21 21 21 21 20 20 19 17 18 19 21 24 24 23 21 20 18
1 2 4 2 5 4 4 2 1 6 1 3 5 6 3 3 3 3 8 15 17 14 15 20 21 20 20 20 23 23 22 22 20 21 20 21 20 19 19 18 19 20 21 23 24 22 20 18 16
3 2 1 1 4 5 5 2 2 3 2 3 3 6 3 3 7 9 8 12 12 15 14 17 19 17 18 19 22 23 22 22 20 20 20 21 19 19 18 17 18 19 21 21 21 20 18 17 16
2 1 1 2 4 5 4 2 4 2 3 4 3 6 4 4 8 8 11 10 5 5 13 16 18 18 18 19 15 22 21 20 20 18 19 19 18 18 18 17 17 18 18 19 18 18 17 16 16
2 2 2 2 4 5 2 3 3 3 5 2 3 4 3 5 7 11 12 12 11 11 10 12 13 14 16 14 11 12 19 19 18 15 16 15 15 17 16 16 17 16 17 18 18 19 17 16 17
3 2 2 3 3 3 1 3 1 2 3 0 3 3 3 4 9 13 14 15 13 11 16 14 15 15 13 7 13 9 17 18 17 15 15 13 13 14 14 14 14 16 17 18 18 17 17 17 16
2 2 2 3 3 2 3 4 3 3 5 3 3 2 9 14 11 13 14 15 14 12 11 18 14 16 12 9 11 11 14 16 16 14 13 11 9 12 13 12 14 16 16 16 17 18 18 16 16
2 1 5 5 3 4 2 2 7 3 3 3 5 9 13 13 11 11 12 12 15 17 15 11 8 11 11 7 9 9 8 8 9 9 8 5 8 8 9 11 14 15 17 16 17 17 15 11 7
3 5 5 7 6 3 2 3 2 7 4 7 9 12 10 14 12 11 10 13 14 16 14 15 10 11 11 6 4 2 4 6 7 9 8 7 7 7 6 6 7 8 11 7 10 9 7 9 7
3 8 6 3 3 5 5 6 4 5 3 2 16 15 11 13 12 13 12 11 12 12 11 7 8 7 9 6 5 5 5 5 5 7 8 6 5 6 6 5 6 7 6 8 7 6 9 9 9
4 3 3 6 3 4 6 4 4 4 7 14 15 13 13 12 13 12 13 12 14 13 6 7 11 12 10 6 5 5 5 6 7 7 7 6 6 6 6 6 5 6 6 7 7 7 7 8 8
3 1 2 2 4 3 3 3 1 4 13 17 14 13 13 13 15 13 13 15 14 13 16 14 10 9 6 6 6 6 6 7 7 5 6 7 5 6 6 6 6 6 6 6 7 6 7 6 6
2 2 2 1 3 3 4 2 2 7 12 14 14 12 11 10 14 14 16 18 17 15 16 16 14 9 6 8 8 6 5 5 5 5 5 5 6 7 7 7 7 7 6 9 7 7 6 6 6
1 3 2 1 2 1 2 3 4 11 11 11 13 12 11 13 13 14 15 17 16 17 20 16 12 10 8 6 6 6 6 5 3 4 5 8 7 10 8 7 7 7 5 5 5 5 5 4 4
3 2 2 0 7 3 2 3 7 12 10 10 10 13 11 13 14 14 16 17 17 17 16 15 13 11 11 9 6 6 6 5 5 4 4 8 9 9 9 8 7 7 5 5 6 4 3 4 4
4 3 4 4 3 4 5 10 9 14 12 11 9 11 11 14 17 17 17 16 17 16 13 13 12 11 10 7 5 4 4 4 4 4 4 7 7 11 10 8 9 8 7 6 5 5 4 3 4
1 0 4 1 4 2 3 6 9 13 11 10 10 11 13 15 16 16 17 18 17 17 15 15 14 12 9 7 7 5 6 5 4 3 7 8 8 10 10 8 9 8 8 7 6 5 5 3 3
3 2 3 3 2 2 4 4 5 15 17 15 14 13 16 14 15 17 17 17 19 19 18 17 16 14 11 9 7 4 5 4 5 5 5 6 8 10 9 9 9 9 7 7 7 5 3 3 3
3 3 2 2 2 2 4 3 2 5 8 11 13 13 13 16 17 18 20 20 19 20 19 19 18 15 13 12 8 4 5 2 4 5 5 7 9 9 9 9 8 9 7 7 6 5 5 4 4
3 4 4 4 3 2 3 3 4 4 10 13 17 16 17 16 15 15 18 20 20 18 16 17 15 14 13 14 12 13 9 9 7 6 6 7 9 8 7 10 9 8 6 8 6 5 4 3 3
5 3 0 2 3 0 1 2 3 2 6 15 17 20 19 18 18 18 19 19 18 17 15 15 15 15 14 15 13 10 9 7 5 5 8 8 7 7 9 11 10 9 7 7 9 8 6 5 4
3 2 5 4 2 1 1 3 4 4 3 3 10 16 19 18 18 19 17 14 16 13 14 14 16 14 14 14 15 15 14 11 8 9 8 8 7 7 10 11 10 10 10 10 6 5 7 5 4
3 3 1 0 1 3 4 3 8 4 7 6 10 10 17 18 17 17 18 17 16 17 16 14 16 16 16 16 15 16 15 13 10 10 8 9 8 8 11 13 11 9 9 8 6 9 8 5 5
5 5 4 3 2 0 1 4 3 3 7 7 8 9 8 14 15 18 19 17 17 16 16 16 17 16 16 16 15 13 14 9 9 9 7 7 8 9 13 12 10 12 11 11 7 4 5 4 5
4 4 2 7 2 1 2 4 9 2 2 4 7 4 2 7 12 15 13 15 14 15 17 18 16 15 15 16 13 14 13 13 11 11 9 7 6 8 10 11 12 10 10 8 6 4 5 6 5
2 6 3 1 4 3 2 3 3 4 3 4 5 5 5 2 6 9 10 12 12 13 13 13 14 16 14 13 12 11 12 12 11 9 10 10 9 9 12 13 10 7 2 2 4 4 4 5 5
4 2 5 3 1 3 1 4 6 4 2 3 3 5 5 3 3 5 7 9 10 10 11 12 13 13 12 11 9 9 8 10 9 8 8 9 10 10 11 10 10 7 5 3 3 2 3 7 7
3 6 6 3 4 0 1 6 3 5 6 6 6 4 3 4 3 3 5 7 8 9 10 11 9 10 10 10 9 8 7 7 7 7 10 11 12 13 11 9 8 7 8 8 5 7 9 8 10
Wind_Direction
126 123 62 43 218 253 213 228 312 280 223 188 265 253 126 65 104 281 9 192 142 146 147 144 143 137 133 127 124 124 124 123 122 118 118 117 115 113 107 101 101 98 101 115 114 111 102 94 89
143 126 76 88 209 202 213 247 197 298 354 337 5 359 72 68 15 110 134 193 147 148 149 149 139 138 136 134 132 131 130 126 123 121 118 115 114 109 105 101 102 101 102 109 113 107 100 97 91
131 40 176 115 167 225 226 212 288 88 115 111 74 39 54 336 292 200 202 163 143 147 149 143 135 137 138 138 136 130 126 122 119 120 119 115 112 112 107 102 100 104 105 106 108 105 102 98 93
159 91 92 239 247 248 241 246 210 140 150 111 124 78 95 306 267 329 148 150 136 140 145 138 136 139 138 139 132 127 123 119 122 120 121 116 112 112 110 109 101 100 106 109 106 106 103 95 91
35 74 99 23 289 274 249 273 138 161 158 44 182 130 88 15 56 56 88 144 138 147 137 134 131 138 144 137 133 126 124 121 123 124 122 118 116 112 112 107 102 98 101 105 108 106 103 96 92
92 82 95 287 258 260 293 172 123 162 173 142 128 122 93 56 64 57 70 60 84 132 139 135 137 135 132 125 125 124 124 126 120 124 121 118 118 116 113 113 108 103 102 102 100 102 103 98 94
136 123 158 229 256 294 302 167 170 199 167 93 101 111 113 96 81 77 77 69 53 75 65 137 119 108 87 92 105 112 118 115 114 115 115 115 116 116 116 116 112 111 108 107 103 97 98 101 91
110 98 157 226 248 279 201 152 142 77 112 163 347 173 115 102 96 87 79 79 71 79 93 86 95 108 110 103 90 102 105 103 103 113 111 111 111 110 108 112 120 121 110 104 106 107 102 96 92
136 81 235 265 222 214 192 181 110 93 107 65 5 46 108 119 115 93 86 83 87 79 109 114 128 109 145 138 111 111 95 110 110 119 118 121 125 120 122 108 114 111 108 105 103 99 93 89 83
137 176 232 213 222 289 248 228 142 152 138 113 118 109 112 122 116 109 117 111 118 112 93 78 124 119 105 88 133 111 119 121 128 128 121 106 117 115 121 110 104 111 105 101 101 96 95 88 85
171 226 235 260 247 216 215 183 145 136 217 185 167 143 115 115 109 112 114 129 137 131 132 144 140 131 118 116 56 85 155 142 127 133 124 131 128 129 127 127 125 118 115 117 111 99 85 92 92
229 257 259 303 160 166 179 142 125 185 344 178 141 137 129 129 134 141 126 133 140 138 138 137 130 118 107 122 172 139 150 136 139 138 144 142 136 142 143 133 124 135 133 117 106 100 100 95 89
220 288 265 284 198 132 149 145 137 48 84 123 134 141 146 148 141 135 129 130 137 145 142 149 153 150 145 167 161 157 144 155 156 156 159 157 155 155 141 135 137 135 129 120 114 112 108 97 90
199 217 214 171 140 123 122 129 265 120 148 140 145 157 164 156 153 140 142 144 148 142 151 156 169 186 175 169 176 176 173 159 158 166 175 167 156 152 142 145 148 141 140 132 125 122 108 94 84
256 274 116 135 113 90 154 222 248 155 162 155 157 165 173 165 156 167 166 160 159 163 167 177 188 209 211 191 188 177 168 172 176 174 176 188 170 157 158 156 152 146 139 126 122 109 102 101 100
201 58 1 41 81 56 345 265 133 169 174 173 173 165 179 171 171 175 173 174 182 178 180 187 203 212 217 206 194 188 170 177 172 185 190 212 188 169 163 163 162 145 135 134 121 121 113 121 110
353 130 197 122 198 152 198 303 158 176 188 196 190 169 184 173 173 179 184 183 188 186 190 198 208 205 205 204 201 188 185 185 192 159 189 195 185 172 170 170 151 143 145 135 141 134 153 132 110
190 179 218 174 124 214 207 254 168 182 199 209 204 171 191 182 189 181 185 188 191 194 197 203 206 207 197 190 186 181 187 194 174 180 202 188 176 173 167 157 154 158 155 149 152 140 108 107 89
166 122 277 145 202 183 247 254 198 190 202 205 209 198 194 205 189 185 189 189 193 202 206 212 209 201 185 182 184 190 196 198 185 194 210 201 176 171 168 161 161 167 169 156 145 128 129 118 83
245 158 257 260 23 154 277 297 203 187 207 206 199 212 208 202 189 193 194 195 197 201 208 209 210 202 196 196 188 187 177 195 194 195 195 201 192 175 171 168 169 170 149 147 161 166 126 91 150
220 190 200 287 338 226 289 326 196 204 232 215 219 217 221 212 205 196 196 199 200 204 204 207 208 200 199 197 178 126 141 133 186 191 197 204 195 174 171 172 166 163 165 162 165 140 142 159 181
239 220 174 205 240 303 353 285 273 212 225 224 218 215 215 215 217 215 200 201 203 206 204 206 204 197 196 188 193 189 197 198 206 188 192 190 192 173 154 168 164 161 156 159 151 141 143 143 200
226 180 160 107 88 198 160 216 262 182 232 233 222 221 221 213 208 210 211 211 204 198 195 195 196 196 193 193 199 196 202 204 165 169 189 189 181 166 164 163 159 164 164 147 148 148 157 150 204
107 98 46 54 105 205 210 218 282 235 221 273 244 229 223 218 209 214 218 202 205 195 191 190 193 198 195 194 195 198 206 197 176 184 186 189 182 177 172 166 168 163 153 153 136 94 197 189 183
111 91 267 157 165 216 130 167 246 250 263 255 283 245 223 213 211 210 209 203 201 195 192 193 196 200 195 194 194 197 205 204 183 186 192 172 177 183 177 171 167 156 142 142 156 177 188 191 204
182 196 171 220 198 246 177 227 239 229 293 285 286 270 231 211 208 209 211 207 205 201 195 194 200 206 200 198 201 200 205 202 196 189 194 191 192 187 170 170 161 155 159 162 171 178 201 176 186
165 203 133 107 47 282 267 274 279 337 313 331 341 351 284 227 217 218 214 206 202 197 199 199 200 205 202 203 200 203 205 199 203 191 194 182 173 174 164 162 155 154 163 172 163 192 184 186 198
185 147 128 35 174 218 254 270 248 325 321 350 347 329 306 264 217 215 206 203 202 201 199 199 204 210 209 206 206 205 204 207 203 187 184 176 172 162 162 162 157 145 159 187 167 178 172 196 221
154 200 58 118 150 192 195 245 213 231 236 286 287 276 274 277 235 214 211 205 202 198 197 199 209 215 213 211 203 199 199 198 186 180 164 160 153 153 162 164 158 148 162 219 176 172 204 234 239
171 175 161 162 197 343 286 249 218 245 265 280 262 246 259 277 294 192 205 193 196 203 208 216 215 215 214 197 189 192 180 176 165 161 152 145 151 164 161 152 162 179 180 166 138 222 239 245 247